Location: Unspecified
(29.9680°N, 0.0000°E)
Time: 04:10:40
(UTC+00:00)

Explorer 7 - Pass Details

Date: 25 June 2019
Orbit: 485 x 680 km, 50.3° (Epoch: 19 July)

Event Time Altitude Azimuth Distance (km) Brightness Sun altitude
Rises 05:31:27 0° 197° (SSW) 2,590 9.9 5.2°
Reaches altitude 10° 05:33:52 10° 183° (S) 1,736 9.1 5.7°
Maximum altitude 05:37:06 24° 127° (SE) 1,119 8.9 6.3°
Drops below altitude 10° 05:40:29 10° 73° (ENE) 1,832 12.4 7.0°
Sets 05:43:06 0° 59° (ENE) 2,771 12.7 7.5°
